This demonstration page uses our WeatherBlox Daily Observations layout. Learn more.

38.88101, -77.10428

Hourly Observations for November 29, 2016

Temp ( °F °C ) Dew Point ( °F °C ) Humidity (%) Winds ( mph kmh ) Pressure ( in mb ) Visibility ( mi km ) Precip ( " mm )
12:52 am 00:52 Cloudy 49 9.4 39 3.9 69 69 SE 6 9 30 1016 10 16.09344 0 0
1:52 am 01:52 Cloudy 50 10 41 5 71 71 Calm 30 1016 10 16.09344 0 0
2:52 am 02:52 Cloudy 50 10 41 5 71 71 NNW 5 7 30.03 1017 10 16.09344 0 0
3:52 am 03:52 Cloudy 49 9.4 43 6.1 80 80 NE 6 9 30 1016 10 16.09344 0.001 0.001
4:52 am 04:52 Cloudy with Light Rain 48 8.9 45 7.2 89 89 Calm 29.97 1015 10 16.09344 0.001 0.001
5:52 am 05:52 Cloudy 48 8.9 46 7.8 93 93 Calm 29.94 1014 10 16.09344 0.02 0.508
6:52 am 06:52 Cloudy with Light Rain 52 11.1 50 10 93 93 Calm 29.94 1014 9 14.484096 0.001 0.001
7:52 am 07:52 Cloudy 58 14.4 53 11.7 84 84 S 14 22 29.91 1013 10 16.09344 0.001 0.001
8:52 am 08:52 Cloudy with Light Rain 57 13.9 54 12.2 90 90 S 12 19 29.91 1013 10 16.09344 0.01 0.254
9:32 am 09:32 Cloudy with Light Rain 57 14 55 13 94 94 S 12 19 29.91 1013 10 16.09344 0 0
9:52 am 09:52 Cloudy with Light Rain 57 13.9 54 12.2 90 90 S 15 24 29.91 1013 10 16.09344 0.01 0.254
10:12 am 10:12 Cloudy with Light Rain 57 14 55 13 94 94 S 15 24 29.88 1012 8 12.874752 0 0
10:52 am 10:52 Cloudy with Light Rain 58 14.4 56 13.3 93 93 S 12 19 29.88 1012 10 16.09344 0.03 0.762
11:52 am 11:52 Cloudy with Light Rain 58 14.4 56 13.3 93 93 S 10 17 29.83 1010 10 16.09344 0.01 0.254
12:52 pm 12:52 Cloudy with Light Rain 63 17.2 58 14.4 84 84 WNW 9 15 29.83 1010 10 16.09344 0.001 0.001
12:57 pm 12:57 Cloudy with Light Rain 63 17.2 59 15 87 87 WNW 12 19 29.83 1010 9 14.484096 0.001 0.001
1:06 pm 13:06 Cloudy with Rain 61 16.1 59 15 93 93 WNW 13 20 29.83 1010 3 4.828032 0.01 0.254
1:21 pm 13:21 Cloudy with Light Rain 60 15.6 58 14.4 93 93 WNW 9 15 29.8 1009 5 8.04672 0.02 0.508
1:28 pm 13:28 Cloudy with Light Rain 59 15 57 14 94 94 WNW 6 9 29.8 1009 5 8.04672 0 0
1:52 pm 13:52 Cloudy 57 13.9 56 13.3 96 96 E 3 6 29.8 1009 10 16.09344 0.02 0.508
2:52 pm 14:52 Cloudy 58 14.4 57 13.9 97 97 Calm 29.8 1009 8 12.874752 0 0
3:52 pm 15:52 Cloudy 59 15 58 14.4 96 96 SSW 3 6 29.83 1010 10 16.09344 0.01 0.254
4:52 pm 16:52 Cloudy 58 14.4 57 13.9 97 97 SSE 5 7 29.83 1010 10 16.09344 0.001 0.001
5:52 pm 17:52 Cloudy 58 14.4 58 14.4 100 100 Calm 29.85 1011 10 16.09344 0.01 0.254
6:52 pm 18:52 Cloudy 57 13.9 57 13.9 100 100 SSE 8 13 29.88 1012 9 14.484096 0 0
7:12 pm 19:12 Mostly Cloudy 55 13 55 13 100 100 S 6 9 29.88 1012 8 12.874752 0 0
7:52 pm 19:52 Mostly Cloudy 58 14.4 57 13.9 97 97 SSE 3 6 29.91 1013 10 16.09344 0 0
8:52 pm 20:52 Mostly Cloudy 56 13.3 56 13.3 100 100 Calm 29.91 1013 8 12.874752 0 0
9:05 pm 21:05 Mostly Cloudy 54 12.2 54 12.2 100 100 SSE 3 6 29.91 1013 8 12.874752 0 0
9:52 pm 21:52 Mostly Cloudy 55 12.8 55 12.8 100 100 SSW 3 6 29.91 1013 8 12.874752 0 0
10:10 pm 22:10 Mostly Cloudy 54 12 54 12 100 100 Calm 29.91 1013 8 12.874752 0 0
10:52 pm 22:52 Cloudy with Mist and Fog 54 12.2 54 12.2 100 100 Calm 29.91 1013 6 9.656064 0 0
10:58 pm 22:58 Cloudy with Mist and Fog 54 12 54 12 100 100 Calm 29.94 1014 1.75 2.816352 0 0
11:52 pm 23:52 Cloudy with Mist and Fog 56 13.3 56 13.3 100 100 N 3 6 29.91 1013 6 9.656064 0 0

Powered by AerisWeather